This demonstration page uses our WeatherBlox Daily Observations layout. Learn more.

Left ArrowRight Arrow

41.86663, -103.66717

Hourly Observations for September 16, 2015

Temp ( °F °C ) Dew Point ( °F °C ) Humidity (%) Winds ( mph kmh ) Pressure ( in mb ) Visibility ( mi km ) Precip ( " mm )
12:53 am 00:53 Mostly Clear 63 17.2 47 8.3 56 56 WNW 18 30 29.75 1008 10 16.0934 0 0
1:53 am 01:53 Partly Cloudy 62 16.7 49 9.4 62 62 WNW 18 30 29.75 1008 10 16.0934 0 0
2:53 am 02:53 Clear 59 15 49 9.4 69 69 NW 21 33 29.75 1008 10 16.0934 0 0
3:53 am 03:53 Mostly Clear 60 15.6 50 10 70 70 NW 18 30 29.75 1008 10 16.0934 0 0
4:53 am 04:53 Mostly Clear 60 15.6 50 10 70 70 NNW 12 19 29.75 1007 10 16.0934 0 0.0254
5:53 am 05:53 Clear 56 13.3 50 10 81 81 NE 7 11 29.77 1008 10 16.0934 0 0
6:53 am 06:53 Sunny 54 12.2 49 9.4 83 83 NW 13 20 29.79 1009 10 16.0934 0 0
7:53 am 07:53 Mostly Sunny 62 16.7 51 10.6 67 67 NW 15 24 29.79 1009 10 16.0934 0 0
8:53 am 08:53 Sunny 63 17.2 52 11.1 68 68 VRB 5 7 29.8 1009 10 16.0934 0 0
9:53 am 09:53 Sunny 70 21.1 49 9.4 47 47 ENE 7 11 29.78 1009 10 16.0934 0 0
10:53 am 10:53 Mostly Cloudy 71 21.7 50 10 47 47 S 7 11 29.79 1009 10 16.0934 0 0
11:53 am 11:53 Mostly Sunny 76 24.4 50 10 40 40 ESE 12 19 29.75 1008 10 16.0934 0 0
12:53 pm 12:53 Sunny 82 27.8 50 10 33 33 ESE 14 22 29.71 1006 10 16.0934 0 0
1:53 pm 13:53 Partly Cloudy 87 30.6 44 6.7 22 22 SSE 15 24 29.65 1004 10 16.0934 0 0
2:22 pm 14:22 Mostly Cloudy 90 32 39 4 17 17 SSW 14 22 29.44 997 10 16.0934 0 0
2:53 pm 14:53 Sunny 87 30.6 43 6.1 21 21 S 12 19 29.65 1004 10 16.0934 0 0
3:53 pm 15:53 Mostly Sunny 86 30 44 6.7 23 23 S 9 15 29.64 1004 10 16.0934 0 0
4:53 pm 16:53 Mostly Sunny 85 29.4 44 6.7 24 24 S 7 11 29.63 1003 10 16.0934 0 0
5:53 pm 17:53 Partly Cloudy 82 27.8 46 7.8 28 28 WSW 6 9 29.65 1004 10 16.0934 0 0
6:53 pm 18:53 Sunny 75 23.9 50 10 41 41 NNW 5 7 29.67 1005 10 16.0934 0 0
7:50 pm 19:50 Mostly Cloudy with Nearby Thunderstorms 73 23 52 11 47 47 NNW 3 6 29.56 1001 10 16.0934 0 0
7:53 pm 19:53 Mostly Cloudy with Nearby Thunderstorms 73 22.8 51 10.6 46 46 NW 9 15 29.68 1005 10 16.0934 0 0
8:07 pm 20:07 Mostly Cloudy 73 22.8 50 10 44 44 NW 10 17 29.59 1002 10 16.0934 0 0
8:53 pm 20:53 Partly Cloudy 72 22.2 48 8.9 43 43 WNW 18 30 29.73 1007 10 16.0934 0 0.0254
9:53 pm 21:53 Clear 69 20.6 46 7.8 44 44 W 13 20 29.76 1008 10 16.0934 0 0
10:53 pm 22:53 Mostly Clear 63 17.2 49 9.4 60 60 NNW 5 7 29.8 1009 10 16.0934 0 0
11:53 pm 23:53 Partly Cloudy 62 16.7 49 9.4 62 62 NW 6 9 29.8 1009 10 16.0934 0 0

Powered by AerisWeather